Location: Alfortville
(48.8058°N, 2.4204°E)
Time: 04:46:12
(UTC+00:00)

USA 229 DEB - Pass Details

Date: 03 June 2022
Orbit: 934 x 1278 km, 63.4° (Epoch: 24 May)

Event Time Altitude Azimuth Distance (km) Brightness Sun altitude
Rises 00:35:09 0° 308° (NW) 4,039 7.1 -18.1°
Reaches altitude 10° 00:39:02 10° 289° (WNW) 3,134 6.2 -18.0°
Maximum altitude 00:43:15 16° 254° (WSW) 2,746 5.6 -17.9°
Enters shadow 00:45:25 14° 236° (SW) 2,884 5.5 -17.8°
